Location: Banksville Park
(38.5557°N, 75.1182°W)
Time: 14:27:50
(UTC+00:00)

SL-16 R/B - Pass Details

Date: 19 September 2020
Orbit: 842 x 846 km, 71.0° (Epoch: 27 October)

Event Time Altitude Azimuth Distance (km) Brightness Sun altitude
Exits shadow 09:31:49 10° 209° (SSW) 2,458 4.2 -15.2°
Reaches altitude 10° 09:31:49 10° 209° (SSW) 2,453 4.2 -15.2°
Maximum altitude 09:37:26 72° 293° (WNW) 889 2.1 -14.1°
Drops below altitude 10° 09:43:06 10° 18° (NNE) 2,470 5.0 -13.0°
Sets 09:45:35 0° 21° (NNE) 3,410 5.8 -12.5°
